| time (UTC) | temp F | wind direction | speed MPH | gust MPH | rain 1hr in | rain 24hr in | rain mn in | humidity % | barometer mb |
| 20260509091504 | 46 | 328 | 11.0 | 18.0 | 0.00 | 0.00 | 0.00 | 77 | 1023.1 |
| 20260509090004 | 46 | 322 | 12.0 | 18.0 | 0.00 | 0.00 | 0.00 | 78 | 1023.1 |
| 20260509084504 | 46 | 326 | 12.0 | 19.0 | 0.00 | 0.00 | 0.00 | 77 | 1023.1 |
| 20260509083004 | 46 | 321 | 12.0 | 20.0 | 0.00 | 0.00 | 0.00 | 81 | 1023.1 |
| 20260509081504 | 45 | 315 | 10.0 | 16.0 | 0.00 | 0.00 | 0.00 | 84 | 1022.8 |
| 20260509080004 | 44 | 318 | 9.0 | 15.0 | 0.00 | 0.00 | 0.00 | 83 | 1022.9 |
| 20260509074504 | 44 | 317 | 11.0 | 18.0 | 0.00 | 0.00 | 0.00 | 83 | 1022.9 |
| 20260509073004 | 43 | 294 | 8.0 | 12.0 | 0.00 | 0.00 | 0.00 | 87 | 1022.8 |
| 20260509071504 | 43 | 288 | 8.0 | 18.0 | 0.00 | 0.00 | 0.00 | 88 | 1022.7 |
| 20260509070004 | 44 | 299 | 11.0 | 16.0 | 0.00 | 0.00 | 0.00 | 86 | 1022.5 |
| 20260509064504 | 43 | 294 | 9.0 | 15.0 | 0.00 | 0.00 | 0.00 | 88 | 1022.4 |
| 20260509063025 | 42 | 292 | 10.0 | 15.0 | 0.00 | 0.00 | 0.00 | 89 | 1022.5 |
| 20260509061504 | 43 | 290 | 6.0 | 15.0 | 0.00 | 0.00 | 0.00 | 91 | 1022.2 |
| 20260509060025 | 42 | 271 | 2.0 | 8.0 | 0.00 | 0.00 | 0.00 | 93 | 1022.1 |
| 20260509054504 | 40 | 261 | 2.0 | 5.0 | 0.00 | 0.00 | 0.00 | 94 | 1022.0 |
| 20260509053025 | 39 | 260 | 2.0 | 5.0 | 0.00 | 0.00 | 0.00 | 94 | 1021.9 |
| 20260509051504 | 39 | 257 | 4.0 | 8.0 | 0.00 | 0.00 | 0.00 | 94 | 1021.8 |
| 20260509050004 | 38 | 257 | 5.0 | 9.0 | 0.00 | 0.00 | 0.00 | 94 | 1021.7 |
| 20260509044504 | 38 | 260 | 2.0 | 7.0 | 0.00 | 0.00 | 0.00 | 93 | 1021.7 |
| 20260509043004 | 39 | 255 | 2.0 | 9.0 | 0.00 | 0.00 | 0.00 | 93 | 1021.6 |
| 20260509041504 | 39 | 253 | 7.0 | 10.0 | 0.00 | 0.00 | 0.00 | 94 | 1021.6 |
| 20260509040004 | 38 | 262 | 2.0 | 5.0 | 0.00 | 0.00 | 0.00 | 92 | 1021.5 |
| 20260509034504 | 39 | 263 | 2.0 | 4.0 | 0.00 | 0.00 | 0.00 | 92 | 1021.4 |
| 20260509033004 | 39 | 259 | 1.0 | 7.0 | 0.00 | 0.00 | 0.00 | 92 | 1021.3 |
| 20260509031504 | 40 | 266 | 2.0 | 5.0 | 0.00 | 0.00 | 0.00 | 90 | 1021.3 |
| 20260509030004 | 40 | 267 | 1.0 | 8.0 | 0.00 | 0.00 | 0.00 | 90 | 1021.4 |
| 20260509024504 | 41 | 267 | 2.0 | 7.0 | 0.00 | 0.00 | 0.00 | 89 | 1021.4 |
| 20260509023004 | 41 | 265 | 1.0 | 5.0 | 0.00 | 0.00 | 0.00 | 89 | 1021.5 |
| 20260509021504 | 41 | 257 | 1.0 | 5.0 | 0.00 | 0.00 | 0.00 | 89 | 1021.3 |
| 20260509020025 | 41 | 257 | 5.0 | 8.0 | 0.00 | 0.00 | 0.00 | 89 | 1021.3 |
| 20260509014504 | 41 | 267 | 2.0 | 5.0 | 0.00 | 0.00 | 0.00 | 87 | 1021.3 |
| 20260509013004 | 42 | 266 | 2.0 | 5.0 | 0.00 | 0.00 | 0.00 | 85 | 1021.1 |
| 20260509011504 | 43 | 289 | 3.0 | 11.0 | 0.00 | 0.00 | 0.00 | 83 | 1021.0 |
| 20260509010025 | 44 | 294 | 9.0 | 13.0 | 0.00 | 0.00 | 0.00 | 82 | 1020.9 |
| 20260509004525 | 44 | 292 | 9.0 | 13.0 | 0.00 | 0.00 | 0.00 | 81 | 1020.8 |
| 20260509003004 | 44 | 290 | 8.0 | 13.0 | 0.00 | 0.00 | 0.00 | 81 | 1020.7 |
| 20260509001504 | 44 | 296 | 5.0 | 12.0 | 0.00 | 0.00 | 0.00 | 80 | 1020.6 |
| 20260509000004 | 44 | 304 | 5.0 | 8.0 | 0.00 | 0.00 | 0.00 | 79 | 1020.5 |
| 20260508234504 | 44 | 307 | 5.0 | 9.0 | 0.00 | 0.00 | 0.00 | 78 | 1020.4 |
| 20260508233004 | 44 | 307 | 4.0 | 7.0 | 0.00 | 0.00 | 0.00 | 77 | 1020.4 |
| 20260508231503 | 45 | 315 | 5.0 | 9.0 | 0.00 | 0.00 | 0.00 | 77 | 1020.3 |
| 20260508230004 | 45 | 310 | 5.0 | 10.0 | 0.00 | 0.00 | 0.00 | 76 | 1020.2 |
| 20260508224504 | 45 | 305 | 7.0 | 11.0 | 0.00 | 0.00 | 0.00 | 76 | 1020.0 |
| 20260508223004 | 46 | 298 | 10.0 | 13.0 | 0.00 | 0.00 | 0.00 | 76 | 1019.9 |
| 20260508221504 | 46 | 297 | 9.0 | 13.0 | 0.00 | 0.00 | 0.00 | 76 | 1019.8 |
| 20260508220025 | 46 | 301 | 9.0 | 13.0 | 0.00 | 0.00 | 0.00 | 76 | 1019.7 |
| 20260508214503 | 46 | 308 | 9.0 | 13.0 | 0.00 | 0.00 | 0.00 | 75 | 1019.6 |
| 20260508213024 | 47 | 310 | 8.0 | 14.0 | 0.00 | 0.00 | 0.00 | 76 | 1019.5 |
| 20260508211504 | 47 | 310 | 7.0 | 11.0 | 0.00 | 0.00 | 0.00 | 77 | 1019.3 |
| 20260508210004 | 47 | 313 | 7.0 | 11.0 | 0.00 | 0.00 | 0.00 | 75 | 1019.1 |
| 20260508204503 | 47 | 311 | 7.0 | 16.0 | 0.00 | 0.00 | 0.00 | 75 | 1019.1 |
| 20260508203025 | 48 | 312 | 10.0 | 16.0 | 0.00 | 0.00 | 0.00 | 75 | 1018.8 |
| 20260508201503 | 48 | 317 | 11.0 | 15.0 | 0.00 | 0.00 | 0.00 | 74 | 1018.6 |
| 20260508200004 | 48 | 319 | 9.0 | 13.0 | 0.00 | 0.00 | 0.00 | 74 | 1018.3 |
| 20260508194524 | 49 | 320 | 10.0 | 16.0 | 0.00 | 0.00 | 0.00 | 74 | 1018.1 |
| 20260508193025 | 49 | 315 | 12.0 | 18.0 | 0.00 | 0.00 | 0.00 | 72 | 1017.8 |
| 20260508191503 | 49 | 314 | 12.0 | 18.0 | 0.00 | 0.00 | 0.00 | 70 | 1017.6 |
| 20260508190004 | 50 | 312 | 12.0 | 18.0 | 0.00 | 0.00 | 0.00 | 70 | 1017.3 |
| 20260508184504 | 50 | 311 | 12.0 | 18.0 | 0.00 | 0.00 | 0.00 | 72 | 1017.0 |
| 20260508183003 | 50 | 308 | 12.0 | 16.0 | 0.00 | 0.00 | 0.00 | 70 | 1016.9 |
| 20260508181503 | 51 | 308 | 13.0 | 18.0 | 0.00 | 0.00 | 0.00 | 68 | 1016.6 |
| 20260508180003 | 52 | 310 | 11.0 | 19.0 | 0.00 | 0.00 | 0.00 | 68 | 1016.5 |
| 20260508174503 | 51 | 314 | 10.0 | 16.0 | 0.00 | 0.00 | 0.00 | 71 | 1016.4 |
| 20260508173003 | 51 | 312 | 12.0 | 18.0 | 0.00 | 0.00 | 0.00 | 70 | 1016.3 |
| 20260508171503 | 51 | 323 | 9.0 | 16.0 | 0.00 | 0.00 | 0.00 | 71 | 1016.0 |
| 20260508170004 | 51 | 311 | 12.0 | 19.0 | 0.00 | 0.00 | 0.00 | 70 | 1015.8 |
| 20260508164503 | 51 | 308 | 12.0 | 21.0 | 0.00 | 0.00 | 0.00 | 72 | 1015.5 |
| 20260508163003 | 51 | 313 | 13.0 | 19.0 | 0.00 | 0.00 | 0.00 | 71 | 1015.2 |
| 20260508161504 | 51 | 315 | 15.0 | 21.0 | 0.00 | 0.00 | 0.00 | 73 | 1015.2 |
| 20260508160003 | 52 | 314 | 15.0 | 24.0 | 0.00 | 0.00 | 0.00 | 73 | 1015.1 |
| 20260508154503 | 52 | 312 | 14.0 | 23.0 | 0.00 | 0.00 | 0.00 | 73 | 1015.0 |
| 20260508153003 | 53 | 313 | 14.0 | 21.0 | 0.00 | 0.00 | 0.00 | 70 | 1014.9 |
| 20260508151503 | 53 | 309 | 14.0 | 23.0 | 0.00 | 0.00 | 0.00 | 71 | 1014.7 |
| 20260508150004 | 54 | 315 | 14.0 | 22.0 | 0.00 | 0.00 | 0.00 | 68 | 1014.5 |
| 20260508144524 | 55 | 304 | 14.0 | 22.0 | 0.00 | 0.00 | 0.00 | 65 | 1014.3 |
| 20260508143003 | 55 | 301 | 13.0 | 21.0 | 0.00 | 0.00 | 0.00 | 67 | 1014.1 |
| 20260508141503 | 55 | 306 | 15.0 | 24.0 | 0.00 | 0.00 | 0.00 | 66 | 1013.9 |
| 20260508140003 | 55 | 310 | 8.0 | 13.0 | 0.00 | 0.00 | 0.00 | 67 | 1013.7 |
| 20260508134503 | 55 | 302 | 10.0 | 19.0 | 0.00 | 0.00 | 0.00 | 67 | 1013.6 |
| 20260508133003 | 55 | 293 | 13.0 | 18.0 | 0.00 | 0.00 | 0.00 | 65 | 1013.5 |
| 20260508131503 | 56 | 275 | 6.0 | 14.0 | 0.00 | 0.00 | 0.00 | 62 | 1013.3 |
| 20260508130004 | 56 | 276 | 5.0 | 15.0 | 0.00 | 0.00 | 0.00 | 64 | 1013.2 |
| 20260508124503 | 56 | 259 | 7.0 | 15.0 | 0.00 | 0.00 | 0.00 | 62 | 1013.1 |
| 20260508123003 | 56 | 237 | 8.0 | 15.0 | 0.00 | 0.00 | 0.00 | 65 | 1013.0 |
| 20260508121503 | 55 | 236 | 14.0 | 23.0 | 0.00 | 0.00 | 0.00 | 64 | 1013.0 |
| 20260508120003 | 56 | 235 | 11.0 | 22.0 | 0.00 | 0.00 | 0.00 | 66 | 1012.9 |
| 20260508114503 | 56 | 223 | 11.0 | 25.0 | 0.00 | 0.00 | 0.00 | 66 | 1012.6 |
| 20260508113004 | 55 | 230 | 14.0 | 24.0 | 0.00 | 0.00 | 0.00 | 65 | 1012.5 |
| 20260508111503 | 56 | 235 | 15.0 | 24.0 | 0.00 | 0.00 | 0.00 | 66 | 1012.3 |
| 20260508110003 | 54 | 236 | 14.0 | 25.0 | 0.00 | 0.00 | 0.00 | 68 | 1012.3 |
| 20260508104503 | 54 | 234 | 11.0 | 18.0 | 0.00 | 0.00 | 0.00 | 71 | 1012.3 |
| 20260508103003 | 53 | 244 | 14.0 | 25.0 | 0.00 | 0.00 | 0.00 | 70 | 1012.1 |
| 20260508101503 | 53 | 246 | 15.0 | 22.0 | 0.00 | 0.00 | 0.00 | 69 | 1012.0 |
| 20260508100003 | 53 | 237 | 13.0 | 23.0 | 0.00 | 0.00 | 0.00 | 69 | 1012.0 |
| 20260508094524 | 52 | 230 | 14.0 | 22.0 | 0.00 | 0.00 | 0.00 | 70 | 1011.7 |
| 20260508093003 | 52 | 227 | 12.0 | 22.0 | 0.00 | 0.00 | 0.00 | 71 | 1011.6 |